Theta_e
343 347 351 349 350 351 351 350 351 352 351 351 351 351 351 350 350 350 351 351 350 349 348 348 348 348 348 348 347 347 347 347 346 345 345 345 346 345 345 345 345 346 346 346 346 348 349 350 351 350 350 350 351 351 350 350 350 349 347 348 350 351 354 355 354 353 352 353 353 353 354 354 354 353 353 354 354 353 352 352 351 349 350 351 353
347 349 348 353 346 349 351 351 351 352 351 350 350 350 350 351 351 351 351 351 351 350 349 348 349 348 348 348 348 347 347 347 345 345 344 344 345 345 345 345 345 345 345 346 346 346 349 350 350 350 350 349 350 349 349 349 348 346 347 347 350 354 354 354 352 351 351 351 352 353 353 354 354 354 353 353 353 352 351 351 351 349 349 352 353
348 349 348 351 345 348 350 351 351 351 351 351 351 351 351 351 351 351 351 351 350 349 349 349 349 348 348 348 347 347 347 345 345 345 345 344 344 344 344 344 344 345 345 345 345 346 347 348 349 350 350 349 350 349 349 348 347 346 346 346 351 353 354 353 352 351 351 351 351 351 349 351 353 353 353 353 353 353 351 351 350 350 349 352 351
342 346 347 349 344 346 349 350 351 351 351 351 351 351 351 351 351 351 351 350 350 350 349 349 349 349 348 348 347 346 345 345 345 345 344 344 344 344 343 344 344 345 344 345 345 346 346 346 347 350 350 351 349 349 348 347 347 347 347 346 352 353 353 352 352 351 350 350 349 348 349 351 350 353 353 353 353 352 349 350 349 351 352 352 351
340 344 345 350 348 345 347 350 351 351 351 351 351 351 351 351 351 350 350 350 350 349 349 349 348 348 348 347 347 346 345 345 344 344 345 345 344 344 344 343 344 345 345 345 346 345 346 346 347 348 349 351 349 348 347 346 346 346 347 345 351 350 352 352 351 350 349 348 348 346 347 349 350 351 352 353 352 350 349 351 351 352 351 350 350
341 341 344 345 350 350 345 348 350 352 351 351 351 351 351 351 350 350 349 349 349 349 348 348 348 347 347 347 347 345 345 345 344 344 345 345 345 345 344 344 345 344 344 344 346 346 346 347 346 347 349 351 349 347 346 345 346 346 346 347 347 349 351 351 350 349 348 346 345 350 347 347 349 350 351 352 352 349 351 352 352 351 351 350 349
341 341 342 344 348 349 343 346 349 351 352 350 350 351 351 351 350 349 349 349 348 348 348 348 347 347 347 346 346 345 344 344 345 345 344 345 345 345 345 345 345 344 345 344 344 344 346 346 346 347 348 351 349 347 346 347 346 346 345 348 348 349 350 350 349 348 346 345 348 350 348 345 348 350 351 351 351 351 352 351 351 350 350 350 350
339 342 342 343 347 346 342 346 348 350 351 351 350 350 351 350 350 349 348 349 348 348 348 348 347 347 347 346 346 345 344 344 345 345 345 345 346 346 346 345 346 346 347 347 346 344 345 346 347 348 349 349 347 347 345 345 346 345 345 345 345 346 350 349 347 346 345 346 347 345 343 344 347 349 352 352 351 351 351 350 350 350 349 349 347
336 338 339 342 346 344 343 346 347 349 351 351 351 351 351 350 350 349 348 348 348 347 347 346 347 346 346 346 345 345 345 344 344 345 345 345 345 346 346 347 347 347 347 347 348 347 346 346 347 347 349 348 346 347 346 345 346 346 345 345 343 347 348 347 346 343 344 344 342 341 344 342 345 347 351 352 352 351 350 350 349 349 349 348 346
329 336 338 339 343 340 341 344 346 348 349 349 349 349 351 351 349 349 349 348 348 348 347 346 346 346 345 345 346 345 345 344 344 345 347 346 345 345 347 346 347 347 348 348 348 348 348 346 347 348 349 347 347 347 347 347 347 346 345 346 344 348 347 346 344 342 344 341 340 341 344 342 344 346 349 351 351 349 349 345 344 344 346 346 346
327 332 337 339 342 337 341 342 343 345 347 347 348 348 349 350 349 349 348 348 348 348 347 347 346 346 345 345 345 345 345 345 346 346 346 345 344 345 345 346 347 348 348 349 349 349 348 348 347 348 348 348 347 347 347 346 346 345 344 344 345 348 347 345 342 344 339 339 340 341 342 341 343 345 349 349 350 349 346 343 343 344 346 347 348
324 330 337 338 337 335 337 340 342 343 345 346 347 348 348 348 349 349 349 348 348 347 346 347 346 346 344 344 345 345 345 345 346 346 345 345 345 344 345 346 346 348 348 349 350 349 349 348 348 347 348 347 346 346 346 346 346 344 343 344 347 346 344 342 343 340 341 340 339 342 342 342 342 344 349 348 347 349 345 344 346 347 347 347 347
327 331 335 337 340 334 335 337 339 341 343 345 346 347 348 348 348 348 348 348 348 347 346 346 346 346 346 345 345 346 347 347 347 346 345 345 344 344 344 345 346 347 347 348 349 350 350 349 349 348 348 346 345 347 344 344 344 343 343 342 344 344 341 339 344 342 339 341 340 343 343 344 344 346 348 348 345 347 347 347 347 347 347 346 347
330 329 335 335 336 336 332 334 336 339 341 344 345 346 346 347 348 348 347 347 347 347 347 346 346 346 346 345 345 344 347 347 347 346 346 345 344 344 345 345 346 346 347 348 348 349 350 350 349 348 347 345 344 343 342 344 343 343 343 342 342 342 337 335 339 341 340 340 342 342 343 343 346 347 348 348 347 347 348 347 347 346 345 345 346
329 332 335 335 334 336 331 331 333 334 337 341 343 345 345 346 346 347 347 346 346 346 346 346 346 344 345 344 345 346 347 346 346 346 345 344 344 344 345 345 345 346 346 347 348 349 349 348 348 348 347 344 343 343 343 342 342 343 343 343 342 339 336 341 342 342 340 340 340 341 343 343 345 348 348 349 345 346 347 346 346 346 345 345 344
331 332 332 332 334 333 335 331 329 331 333 336 339 342 343 344 345 345 345 345 346 346 346 345 346 345 344 345 346 346 346 346 345 345 344 343 343 344 343 344 345 345 346 346 347 348 346 346 347 347 345 344 344 343 341 341 341 341 342 341 338 336 334 336 343 342 342 340 341 342 342 344 345 347 346 344 347 347 346 345 345 346 345 345 344
329 331 331 331 332 333 332 333 334 327 329 332 334 336 338 340 342 344 345 344 345 345 345 345 345 345 346 346 346 345 344 345 345 344 343 343 343 342 343 343 343 344 345 345 346 346 345 345 346 345 343 343 343 343 341 342 341 341 338 335 334 334 331 331 337 344 344 342 343 342 343 344 343 345 346 346 345 343 344 344 344 344 344 344 344
329 329 328 329 330 332 332 333 334 336 336 332 329 331 334 337 339 341 341 342 343 343 343 343 343 343 344 343 341 340 340 341 343 344 343 342 342 342 342 342 343 343 344 345 345 345 344 345 345 344 342 343 343 342 341 341 340 339 335 333 331 329 326 326 334 341 343 340 341 344 341 339 341 344 346 346 343 343 344 343 344 344 344 343 343
328 327 326 327 327 329 330 333 333 333 335 336 337 337 330 332 335 336 338 339 340 340 339 340 340 339 340 339 337 334 334 335 336 337 340 338 337 336 338 341 342 342 343 344 345 345 344 343 344 344 341 342 343 341 341 341 339 336 334 332 329 325 324 327 335 340 341 342 343 342 342 339 341 344 346 345 344 342 344 344 343 343 343 342 343
319 325 326 327 327 328 329 329 332 332 333 333 335 337 333 328 331 334 335 336 337 337 337 337 334 332 333 332 330 334 330 334 327 333 331 335 333 333 334 339 340 341 342 343 344 344 344 342 343 343 342 341 342 340 338 338 338 336 333 331 327 323 327 337 339 339 340 341 340 340 337 339 340 344 343 346 342 342 343 343 342 343 343 343 343
315 316 316 316 318 325 326 327 329 330 332 333 334 335 337 329 329 328 329 330 333 333 333 331 327 326 327 326 326 337 341 341 339 338 328 337 329 326 329 336 339 340 340 341 343 343 343 342 342 343 342 341 337 335 333 337 336 335 333 331 324 333 337 337 339 338 338 337 338 339 336 338 340 343 343 343 341 342 342 343 343 343 343 342 341
310 311 314 316 317 317 321 325 324 327 330 333 334 335 336 334 337 339 338 334 330 328 333 337 330 341 327 335 339 339 339 338 338 332 338 338 335 325 326 331 337 337 336 339 341 342 342 342 342 342 340 338 333 335 331 330 331 332 329 325 331 337 338 338 339 337 337 338 337 335 336 338 340 342 343 341 344 344 342 343 341 341 341 340 339
309 311 312 313 314 315 316 317 323 326 327 329 333 334 333 334 335 337 337 333 334 335 337 338 339 340 340 340 337 339 337 337 336 336 337 327 335 324 325 329 334 334 333 335 337 340 341 341 342 340 338 333 332 334 332 332 330 322 321 329 336 335 337 337 337 336 337 336 337 332 336 339 340 340 342 340 342 341 341 341 340 339 339 339 339
306 308 309 312 312 312 314 316 318 321 325 328 330 331 332 332 333 334 335 336 337 338 338 337 338 339 339 338 337 337 337 336 325 320 326 338 333 320 322 324 326 327 325 330 332 335 339 339 338 336 333 329 334 331 331 329 328 328 330 334 336 336 335 335 336 334 333 335 336 332 337 339 340 340 340 342 343 341 340 340 339 339 338 338 338
307 308 308 309 310 310 312 313 315 318 321 324 328 329 330 330 332 332 333 333 335 337 338 338 338 339 339 337 337 336 335 334 337 338 338 337 337 337 335 336 337 337 325 336 337 338 335 337 336 330 333 333 331 330 329 328 327 328 331 334 332 333 334 336 336 336 335 336 334 330 334 338 338 340 342 342 341 341 340 339 338 337 337 337 337
306 305 306 306 309 311 312 313 313 315 318 321 324 327 327 328 329 329 330 332 333 335 336 337 337 338 338 337 336 337 335 335 335 336 336 334 334 335 335 336 336 336 335 336 337 334 332 328 328 330 331 332 330 329 329 327 327 327 327 328 329 332 335 335 335 334 335 334 331 329 332 336 338 339 339 339 340 339 339 339 338 336 336 335 335
304 305 306 306 308 308 311 313 313 313 315 318 321 324 326 327 328 329 329 330 331 332 334 336 337 337 338 338 336 334 334 335 333 334 335 333 333 334 334 335 335 335 335 336 333 332 332 330 326 323 328 327 327 327 328 327 326 325 326 327 328 330 333 335 334 333 334 333 326 325 329 333 338 339 339 339 339 339 338 337 336 335 334 334 334
304 304 306 306 308 308 310 311 313 314 315 315 316 318 323 325 326 327 328 327 329 331 332 334 336 336 338 337 335 334 333 333 332 334 333 332 333 334 334 334 334 334 334 334 331 329 329 329 328 325 323 325 325 324 325 326 326 325 324 325 326 329 332 332 332 332 333 331 329 323 325 330 334 336 337 337 338 338 337 337 336 335 334 333 333
303 304 305 305 307 309 310 309 312 314 315 316 316 318 320 322 324 326 327 325 329 329 331 332 333 335 337 335 335 335 332 332 332 332 332 330 331 332 333 333 333 333 334 332 330 328 328 327 327 325 322 321 322 322 322 322 323 325 324 323 324 325 328 330 331 330 331 331 329 324 323 326 331 334 336 337 337 336 337 336 337 336 335 334 333
300 303 304 305 305 307 308 309 312 314 316 317 316 316 318 320 322 323 325 326 327 329 331 332 332 334 335 333 334 332 332 331 332 332 330 330 331 332 330 331 331 333 333 331 330 329 327 326 326 324 322 321 320 321 321 321 322 323 324 324 323 325 326 327 328 328 328 330 329 326 320 323 328 334 334 335 337 337 337 336 335 336 335 334 333
301 301 302 303 306 306 306 307 309 311 311 313 316 317 318 318 321 322 323 324 326 329 330 330 332 333 333 335 334 333 332 331 332 332 330 329 331 330 329 330 331 331 332 332 330 328 327 326 324 324 323 322 321 321 321 320 321 322 322 323 323 325 325 326 329 327 325 326 328 327 324 319 325 327 330 333 334 334 335 335 334 334 334 334 333
299 301 302 303 303 305 305 305 307 309 311 310 315 316 317 319 320 321 322 324 325 326 328 329 330 333 332 332 332 332 331 331 331 332 330 329 330 329 328 328 330 329 331 331 328 327 327 326 326 325 323 322 321 321 321 321 320 320 321 322 323 324 325 324 325 324 323 323 326 326 326 325 319 323 325 332 333 334 333 333 333 332 333 333 333
300 301 301 303 304 303 305 306 306 307 307 307 308 310 316 317 319 320 321 324 325 325 327 328 330 331 331 332 330 330 331 330 330 332 330 330 329 328 328 327 331 329 329 330 328 327 325 325 324 324 322 321 320 320 320 321 320 320 320 320 321 322 322 323 323 322 322 322 324 325 325 325 325 317 320 323 330 331 332 332 332 332 332 332 332
298 299 299 300 303 305 304 305 306 305 306 306 307 309 310 315 318 319 320 321 322 323 325 327 328 330 331 332 331 330 329 327 329 332 330 329 329 327 327 327 329 329 329 328 326 326 324 322 321 322 318 320 319 319 319 319 319 319 319 319 319 319 320 321 321 320 321 322 323 324 325 325 325 324 324 318 321 326 330 331 331 331 330 330 331
298 297 298 299 299 301 304 303 304 303 303 303 305 307 310 309 314 318 319 320 321 322 324 327 326 328 330 331 329 328 327 327 328 330 330 328 328 327 327 327 328 328 328 327 325 326 323 321 320 320 319 319 319 318 319 318 318 318 319 318 318 319 320 319 319 318 319 320 322 323 323 323 323 323 323 323 315 320 326 329 330 330 330 330 330
297 297 298 298 298 299 300 302 303 302 302 302 303 305 306 308 308 310 318 320 320 321 323 324 327 326 328 330 330 327 326 328 328 329 329 328 328 327 327 326 327 327 326 327 325 323 322 321 321 320 317 318 318 317 318 318 318 318 319 319 318 318 317 316 317 318 316 317 320 322 322 322 322 323 318 323 323 320 321 325 328 329 329 329 329
297 297 297 297 297 298 299 299 300 302 302 301 302 303 305 305 306 307 308 317 319 318 321 324 326 327 327 327 330 327 325 326 326 327 327 328 328 327 327 327 328 326 325 325 323 323 322 320 320 319 320 317 318 317 317 317 317 318 318 318 318 317 316 315 316 316 316 317 319 321 321 321 319 314 322 322 322 322 319 322 325 326 324 327 328
297 297 298 298 298 298 298 298 299 299 300 301 300 301 302 303 304 306 307 306 310 317 318 320 324 325 325 325 328 327 325 326 326 327 328 326 327 327 327 326 328 326 325 324 323 324 322 322 319 319 320 318 317 317 316 317 317 317 317 318 317 317 317 316 314 311 317 317 318 321 321 321 320 321 321 321 321 321 322 319 319 319 317 322 327
296 296 297 297 298 298 298 298 299 298 298 300 301 300 300 302 302 303 304 304 305 308 315 319 323 325 323 323 326 326 325 325 325 325 324 326 327 326 325 328 327 325 324 323 323 322 321 321 320 319 319 319 318 317 317 317 316 316 316 317 318 317 316 314 312 312 315 317 317 319 321 321 322 322 322 321 321 321 320 319 319 319 320 320 326
296 296 296 296 296 297 297 298 298 298 299 299 299 299 299 298 299 300 300 302 303 303 307 314 317 319 322 323 322 325 325 325 325 326 325 324 324 325 324 327 326 325 324 323 322 322 321 321 320 318 317 316 317 317 317 315 315 315 312 314 314 315 314 313 313 312 313 315 316 316 319 321 321 322 322 322 321 321 320 319 316 319 319 319 321
295 295 295 295 295 295 296 296 297 297 297 297 298 298 297 296 297 297 297 300 303 303 304 310 316 318 320 322 322 322 324 324 324 325 324 321 323 324 324 326 325 323 323 324 322 323 322 321 320 318 317 316 315 316 316 315 311 308 309 308 308 309 311 312 311 311 312 313 313 315 316 318 319 319 320 321 321 320 319 317 317 318 318 318 317
294 295 294 294 294 295 295 294 296 296 296 296 297 298 298 297 296 296 297 299 301 302 301 304 310 315 318 319 320 323 323 322 323 324 323 324 322 322 324 324 324 322 323 323 323 320 321 321 319 317 317 316 315 316 315 312 309 306 303 303 304 305 306 308 308 309 310 310 311 314 316 317 318 319 318 318 319 319 318 318 317 318 318 318 318
294 294 294 294 295 294 295 295 294 295 296 296 296 296 299 300 298 297 299 299 301 302 303 305 309 313 316 317 319 320 321 321 322 323 322 322 322 321 322 323 322 321 321 322 321 320 321 320 319 316 314 315 314 315 313 313 309 309 308 305 299 300 303 304 305 306 309 309 310 312 313 316 316 317 316 317 319 320 319 319 319 319 319 319 319
292 292 293 294 294 294 294 294 294 295 295 296 297 296 296 299 300 299 298 298 298 302 303 304 304 307 309 312 315 316 321 321 323 323 322 322 321 321 322 322 320 320 321 320 319 319 318 318 317 315 315 309 310 310 312 314 311 309 303 304 303 303 296 299 300 301 304 307 309 310 311 313 314 314 314 316 318 319 319 319 319 320 320 320 320
292 292 293 292 292 294 295 295 295 294 295 295 296 297 295 296 298 298 299 298 298 298 299 298 299 301 304 309 312 314 316 319 321 321 319 321 322 322 321 321 320 320 320 320 319 318 318 317 317 315 314 311 309 310 311 314 312 313 309 305 300 299 301 301 300 299 302 303 303 306 307 309 309 310 313 315 317 318 318 318 319 319 319 319 319
291 292 293 293 293 293 293 294 295 295 295 295 295 296 296 293 294 294 294 294 294 294 295 295 297 298 302 306 310 312 314 316 318 321 319 319 320 321 320 320 320 320 319 319 319 319 318 317 317 316 315 314 311 310 309 310 312 313 313 312 309 303 302 300 303 294 298 299 299 302 303 304 306 307 308 313 314 315 316 317 318 318 318 317 317
291 292 292 292 293 293 293 294 294 294 296 295 295 295 294 295 293 294 295 294 294 295 296 298 299 299 301 304 307 310 312 313 315 318 320 319 320 319 318 318 319 318 316 318 318 318 318 317 317 316 315 315 313 309 309 309 310 311 313 309 308 309 307 303 302 296 293 297 300 300 300 300 302 304 306 310 312 313 315 315 315 315 315 315 315
291 292 292 292 292 292 293 293 293 294 294 295 295 295 293 294 294 292 294 295 295 295 295 297 300 300 300 302 303 306 308 310 312 314 319 319 319 319 319 318 317 318 315 316 316 318 318 318 317 317 316 315 314 311 310 310 308 308 310 307 308 308 307 307 305 301 299 294 294 297 299 299 300 301 301 304 307 311 311 312 312 313 313 313 313
292 291 292 292 293 293 293 293 292 293 293 293 295 294 294 293 293 293 292 295 296 296 297 297 298 299 298 300 301 303 306 308 308 309 314 318 317 318 318 318 317 317 313 316 317 318 317 316 315 315 315 314 314 314 313 310 311 310 307 305 308 307 307 303 300 299 297 294 292 296 295 298 300 300 299 299 299 304 308 310 310 310 310 310 311
291 293 292 292 292 292 292 292 292 292 293 293 293 294 294 294 293 293 293 292 295 296 296 296 297 299 297 299 300 300 302 304 305 306 308 315 317 317 318 318 317 317 313 317 317 317 317 316 315 314 315 313 313 313 312 311 312 311 309 306 305 305 305 303 301 301 298 299 295 296 297 297 297 294 295 298 298 300 301 304 306 307 308 308 308
291 292 292 292 292 292 291 291 291 291 292 292 293 292 293 293 293 293 293 292 293 296 296 295 296 297 297 297 298 299 300 301 303 303 305 309 315 315 317 318 318 315 312 316 316 316 316 316 315 315 314 312 312 312 311 312 311 310 308 306 306 307 305 304 303 303 301 295 295 295 298 301 301 296 295 297 297 298 298 301 303 304 306 305 306
Wind_Speed
7 5 4 8 3 6 9 10 11 11 12 12 12 13 13 14 13 13 12 11 13 14 14 14 13 13 12 13 12 12 11 11 10 10 10 10 9 9 9 9 9 9 9 9 10 10 10 11 11 12 11 9 7 10 12 15 14 11 12 14 14 12 11 11 12 13 11 10 11 10 11 13 14 14 14 15 15 13 10 10 9 10 8 12 17
2 6 5 6 5 3 6 9 10 11 11 12 12 13 13 13 13 13 13 14 14 14 14 14 14 14 13 12 12 12 12 12 11 11 10 10 10 10 10 10 10 10 10 10 11 11 11 11 12 12 12 10 10 10 13 13 12 11 11 15 16 13 9 10 9 12 12 9 8 7 8 12 14 14 15 15 14 13 11 9 9 10 8 15 16
3 4 4 5 7 4 4 8 11 12 11 12 12 11 12 12 12 13 14 15 14 15 15 15 15 15 14 13 13 12 12 13 12 12 13 12 12 12 12 12 12 12 11 12 12 12 12 12 12 12 12 10 10 12 12 13 13 14 17 17 13 12 10 10 10 10 11 11 7 5 6 8 12 14 15 14 13 11 7 7 10 12 11 17 13
3 3 4 6 8 5 6 6 8 10 11 12 12 12 12 12 13 13 14 14 14 15 14 14 15 15 14 14 13 13 13 13 13 14 14 14 14 13 13 13 14 13 13 12 12 12 12 12 12 13 12 8 10 14 13 13 14 16 17 16 12 13 11 11 11 10 10 9 9 5 6 8 8 12 15 15 12 6 3 4 12 14 17 16 16
4 4 4 5 8 8 8 6 7 11 12 13 12 13 13 13 14 14 14 14 14 15 14 14 14 14 14 14 14 14 13 13 13 14 15 15 14 14 14 14 15 14 13 13 13 13 12 12 12 13 13 8 11 11 13 14 14 17 17 17 13 9 12 11 11 11 10 9 9 8 7 8 8 10 13 13 10 5 1 10 14 18 16 17 16
4 4 4 5 7 10 9 9 9 10 13 14 13 13 14 14 14 14 14 14 14 14 14 14 14 14 14 15 15 15 15 14 14 15 15 15 15 14 14 15 15 15 14 14 13 13 12 12 13 14 14 9 13 13 13 15 15 17 16 16 10 14 12 13 12 12 11 10 9 4 7 8 8 9 15 14 10 4 8 14 16 16 16 19 17
4 4 5 5 4 8 13 12 11 11 11 14 14 13 14 14 14 14 14 14 14 14 14 14 14 14 15 15 15 15 15 13 13 15 16 15 16 15 15 15 16 16 15 14 14 13 13 12 13 14 15 10 13 15 15 15 17 16 16 17 20 15 15 13 12 12 13 9 6 4 4 8 8 7 15 14 11 9 14 16 17 17 18 18 17
4 3 5 5 5 6 14 14 13 12 11 12 13 13 13 14 14 14 14 14 13 14 14 14 14 14 15 15 16 14 14 14 14 15 15 15 16 16 16 15 16 15 15 14 14 14 13 13 13 15 15 9 13 15 17 15 16 18 19 16 13 17 13 12 11 10 13 9 7 5 5 7 8 7 15 15 13 14 17 17 17 17 18 17 12
5 4 5 6 5 3 8 10 12 12 13 8 10 11 12 13 12 13 14 13 14 15 15 15 15 15 15 15 15 15 15 14 14 14 15 15 15 15 15 15 15 16 15 15 14 14 14 14 13 15 16 10 14 16 18 18 18 20 19 17 14 11 14 13 12 11 9 7 10 7 8 8 8 8 14 16 16 18 18 16 16 18 18 13 14
6 4 4 5 6 5 2 4 9 12 13 9 7 6 9 13 14 14 15 14 14 15 15 16 16 16 15 15 15 15 15 14 14 10 6 5 6 7 11 15 14 15 16 16 15 15 14 14 14 15 15 12 17 17 17 17 17 17 21 22 20 16 12 10 10 9 9 9 7 7 7 9 8 8 14 17 19 18 15 11 9 12 10 13 12
7 6 4 4 4 7 3 4 6 7 11 9 7 7 7 10 14 13 14 14 14 14 14 15 16 16 15 15 15 15 15 14 11 8 8 7 8 10 10 11 13 14 15 16 17 16 16 15 15 15 10 16 18 18 19 17 16 17 19 19 16 15 13 11 9 7 9 8 7 7 7 2 5 7 16 18 17 18 12 8 10 11 14 13 17
8 6 5 4 2 4 1 5 7 10 10 9 8 9 8 9 11 12 12 13 14 15 15 14 15 16 17 16 16 15 13 13 11 10 10 9 10 10 11 12 13 14 15 16 17 18 17 16 15 14 12 16 19 19 20 19 18 19 16 16 14 16 14 11 7 6 5 5 7 6 8 9 9 9 18 19 20 19 14 11 14 16 17 18 18
9 7 5 4 5 5 5 6 7 10 11 12 12 12 11 10 11 12 12 13 14 15 16 15 15 15 15 16 14 13 11 11 11 11 11 11 11 11 12 12 12 13 14 15 17 18 18 18 16 15 15 16 17 16 16 22 21 18 17 17 13 14 11 11 4 3 6 3 5 6 8 7 6 15 17 17 17 18 17 17 17 17 19 20 19
8 7 6 6 6 2 4 6 8 8 11 13 15 15 14 13 11 11 12 12 12 12 13 15 14 14 14 15 12 12 10 11 11 11 12 12 12 12 12 12 13 14 15 15 16 17 18 18 17 13 15 17 19 16 19 20 23 20 19 16 14 13 14 9 2 4 5 4 4 8 9 8 7 16 17 19 20 20 18 19 19 19 18 20 20
9 9 7 7 7 7 4 5 7 10 9 11 13 14 16 15 13 12 12 12 11 12 12 12 12 13 16 16 14 12 10 11 12 12 13 13 11 12 12 13 13 14 14 15 15 15 17 18 16 13 15 19 21 20 21 21 21 20 19 19 18 16 12 6 4 2 3 5 7 8 7 6 12 17 20 20 20 21 21 21 21 21 19 19 18
7 8 8 7 7 7 7 6 9 9 10 11 11 12 14 14 14 14 14 12 12 13 12 11 11 13 16 14 12 12 11 12 12 13 15 13 11 12 13 14 14 14 14 15 14 14 15 16 14 13 14 20 19 21 20 20 23 21 18 16 14 15 15 6 5 4 4 5 7 7 6 5 13 16 18 18 16 19 22 21 20 21 20 20 21
7 7 7 8 8 7 7 8 6 10 11 11 11 12 12 14 14 12 12 14 13 12 12 11 11 12 13 11 11 11 10 11 12 14 14 14 13 13 14 14 14 13 14 15 14 13 14 15 10 14 16 21 22 25 24 22 23 20 18 15 12 10 10 6 4 2 3 1 0 3 4 6 12 18 20 19 18 20 21 22 23 23 21 22 20
5 6 7 8 8 8 8 7 8 7 8 10 13 14 13 12 12 13 12 12 13 13 12 11 11 11 11 11 11 10 11 11 11 11 13 13 13 14 15 15 14 14 14 14 14 13 13 12 13 15 15 20 21 24 22 24 23 19 17 15 15 12 9 6 6 3 3 4 5 2 4 10 12 18 21 20 22 22 23 22 23 22 22 23 23
5 4 5 6 8 9 9 7 8 8 9 8 8 11 16 15 14 13 13 13 13 12 11 11 11 11 12 11 11 11 10 11 10 10 12 11 10 9 9 14 14 15 13 13 13 13 11 12 15 15 17 17 21 25 28 25 23 21 19 16 16 15 15 9 8 6 4 4 4 6 5 11 11 19 21 21 21 20 24 22 21 23 20 23 24
9 7 7 7 7 8 8 8 8 8 8 9 9 10 10 17 15 14 13 13 13 12 11 10 10 12 13 12 11 10 9 9 11 9 11 11 10 9 9 12 13 12 11 12 11 11 11 12 15 17 19 16 20 19 21 19 17 17 17 17 15 16 11 9 11 7 5 6 5 5 9 12 14 17 21 21 22 23 25 25 24 23 24 23 23
9 13 14 14 13 10 10 9 9 10 10 9 9 9 10 8 11 14 14 13 13 12 12 11 10 11 11 11 11 9 9 8 9 10 10 9 11 11 10 9 11 10 10 10 10 9 11 15 15 17 19 19 17 21 21 20 22 20 17 15 16 12 11 8 7 8 6 5 4 6 13 12 19 20 20 22 23 24 24 23 23 23 24 24 23
13 13 13 14 13 13 12 12 10 11 10 9 7 7 8 9 11 10 10 12 12 12 10 10 9 11 10 10 9 9 9 10 10 10 9 10 11 12 9 9 10 9 9 9 9 8 10 13 16 17 18 18 19 14 10 14 21 22 20 18 12 9 9 8 7 8 6 6 7 10 15 16 16 19 22 23 22 23 25 24 25 24 24 24 25
14 12 12 15 13 13 14 14 13 12 12 11 9 9 10 9 9 10 10 11 12 13 12 11 12 12 13 11 10 9 11 10 9 8 6 10 10 11 10 9 8 8 8 9 9 9 11 15 18 18 18 16 10 5 8 10 9 15 15 13 10 8 8 8 7 6 6 6 7 13 13 15 17 20 20 21 23 20 22 26 24 22 24 26 25
15 13 13 11 14 13 14 14 13 13 12 10 10 9 9 9 8 8 9 10 11 11 12 13 12 14 13 12 10 8 10 10 3 6 5 4 4 7 7 7 5 3 5 5 7 7 11 15 17 16 15 10 6 9 10 9 9 8 8 8 8 7 8 7 6 6 5 7 9 14 15 16 15 22 23 24 25 25 23 22 19 24 26 25 24
11 11 12 13 16 15 14 13 13 11 12 10 10 10 10 10 9 8 9 10 10 11 11 12 12 13 13 9 10 9 10 10 6 6 6 6 6 7 6 6 7 8 6 7 8 7 5 8 11 10 11 11 10 11 9 9 10 8 6 5 6 5 6 6 6 5 6 8 10 14 14 18 16 15 21 22 24 26 26 25 21 19 23 23 23
12 12 14 14 15 16 15 13 13 13 11 10 10 10 11 10 11 11 10 9 10 11 11 11 12 13 12 12 12 9 10 8 9 8 7 9 9 8 8 8 8 8 6 7 5 5 5 3 1 10 12 12 12 12 11 13 11 8 5 5 5 5 6 5 5 6 6 7 11 15 12 15 20 19 20 22 21 27 26 26 25 22 23 22 20
12 14 14 14 14 17 16 16 14 12 13 11 10 9 10 10 11 10 10 10 9 11 11 11 11 12 13 12 12 11 11 8 9 8 8 9 9 8 8 8 8 8 7 5 5 5 6 3 5 4 8 14 12 9 8 6 10 9 7 7 6 6 8 6 5 5 6 7 8 14 14 14 17 20 20 22 22 22 25 22 21 19 19 21 22
13 15 14 14 14 18 18 17 15 15 13 12 12 10 9 10 11 10 10 12 11 10 11 12 12 12 12 12 13 12 11 11 11 10 10 10 9 9 7 7 7 7 6 5 3 6 7 9 6 8 4 12 13 11 7 6 6 8 9 7 5 3 6 7 6 5 6 7 7 10 10 12 13 15 16 19 22 22 22 24 24 24 24 21 21
16 16 14 15 16 16 18 19 17 17 14 14 11 10 10 9 10 10 11 11 11 12 12 12 12 12 10 6 11 12 12 12 12 11 11 12 10 9 7 9 8 8 7 8 5 8 9 7 9 7 9 7 8 9 9 7 3 5 7 7 8 4 6 7 7 6 6 6 6 8 10 9 10 14 17 20 21 24 24 24 26 24 23 23 22
17 16 15 15 16 18 18 19 18 16 15 14 12 11 11 11 10 10 11 11 12 12 14 11 12 11 7 9 10 11 12 11 11 11 12 12 10 10 10 8 9 7 8 7 7 7 9 8 8 9 9 12 5 6 8 8 5 3 4 6 6 6 5 7 7 6 6 7 7 7 10 8 7 13 15 12 18 21 25 24 25 25 23 22 24
17 18 17 16 15 16 17 18 17 17 15 14 13 13 12 12 11 11 10 11 13 12 12 12 12 10 11 10 13 14 11 11 12 12 12 10 10 10 10 9 7 5 8 7 7 9 10 9 9 9 11 15 13 6 7 8 7 4 6 4 4 4 5 4 5 5 6 6 8 7 7 9 9 6 8 17 18 16 19 20 22 23 23 23 24
15 16 15 15 17 17 17 18 17 17 17 17 14 14 12 12 12 12 11 12 13 12 13 13 12 8 9 11 11 12 11 10 14 12 13 11 11 12 10 10 8 8 10 6 7 6 9 9 8 7 9 7 13 14 10 8 6 6 5 7 5 4 5 4 6 5 5 5 7 7 7 7 9 7 5 9 16 20 18 19 20 22 23 22 24
12 15 17 16 18 17 15 16 17 18 19 18 16 15 14 13 12 12 12 10 12 12 13 13 13 13 10 11 10 16 9 9 13 13 12 11 12 12 10 10 7 8 9 9 10 9 8 8 9 6 8 8 9 10 10 10 10 8 7 5 5 6 5 5 5 5 5 5 7 7 7 7 7 8 5 5 13 13 16 17 20 21 21 21 23
13 13 16 17 15 12 12 12 15 17 17 16 16 15 15 14 12 12 12 13 11 11 12 13 14 12 12 10 10 11 8 10 12 13 14 13 12 13 12 10 7 7 9 9 9 8 8 8 10 10 9 11 9 10 11 9 8 8 8 7 6 6 6 6 5 5 5 5 5 7 8 7 8 7 6 9 6 13 15 16 18 20 22 23 23
14 16 18 19 18 16 13 13 15 17 16 17 17 16 15 15 14 13 12 13 13 13 11 12 13 13 12 8 12 10 10 13 15 14 13 14 12 13 13 11 11 10 7 9 10 10 11 11 9 9 9 9 9 10 11 11 10 10 9 7 7 6 6 6 6 5 4 4 5 6 7 8 7 7 6 3 4 12 15 16 19 21 21 22 23
17 17 16 17 18 18 16 16 17 17 16 16 15 15 15 15 15 14 13 14 13 14 14 12 11 13 13 13 11 13 11 13 15 15 14 12 12 12 13 11 12 12 11 8 10 6 8 10 12 13 13 11 10 9 8 11 10 11 9 8 7 7 6 6 6 5 3 3 4 6 6 8 7 7 7 5 3 9 15 16 17 18 20 20 22
16 17 18 18 18 19 17 18 18 18 18 18 16 15 14 15 15 14 16 15 13 13 13 11 11 11 11 12 10 11 12 14 14 14 14 15 13 14 13 13 12 12 11 12 11 10 12 12 10 9 10 14 12 12 9 9 10 10 9 9 8 8 7 7 6 6 5 3 4 4 6 8 7 8 7 7 6 9 14 16 17 18 19 19 20
14 16 17 16 17 17 16 15 16 17 16 16 16 15 13 14 13 13 13 14 15 13 13 13 12 12 13 13 11 12 11 13 15 15 13 10 12 13 13 14 15 12 11 14 12 10 11 11 13 12 9 11 13 14 13 11 10 10 9 9 8 7 8 8 6 5 6 6 4 6 7 6 7 8 7 7 7 9 8 11 14 15 17 17 19
13 16 16 15 16 16 16 17 17 18 16 16 16 15 15 13 12 13 13 13 13 14 13 12 11 10 12 15 14 11 13 14 15 13 12 10 10 12 12 13 12 13 13 12 14 12 12 11 13 12 11 11 13 14 14 12 11 10 10 10 8 7 6 6 7 5 6 7 6 6 7 8 7 7 7 6 8 8 9 7 7 8 11 18 17
14 14 17 16 16 17 16 17 17 17 18 16 14 13 14 13 14 13 13 12 12 13 14 13 13 12 12 13 15 14 14 12 15 12 11 13 11 11 13 13 13 14 13 13 11 12 13 15 15 16 14 10 8 11 12 12 10 9 8 6 5 6 8 6 5 6 6 6 6 4 6 8 8 8 8 7 8 9 9 8 7 8 9 14 17
14 16 15 15 16 17 17 18 17 18 16 16 15 14 14 15 14 13 14 14 12 12 13 13 13 12 15 14 15 15 14 16 15 11 12 13 12 12 12 13 13 14 13 15 14 14 15 14 12 12 16 14 10 7 9 12 13 8 7 8 6 5 6 6 6 4 5 6 5 6 5 8 9 8 8 8 9 10 9 9 8 8 9 9 12
16 17 16 16 16 16 16 16 15 17 17 17 16 14 13 13 14 15 14 13 12 11 13 13 14 14 15 14 12 13 14 15 14 13 12 12 9 8 10 13 13 12 11 12 16 15 18 15 12 10 10 14 11 13 12 11 9 14 12 7 5 5 5 6 6 3 3 4 5 6 7 7 10 9 5 4 9 10 10 9 8 8 9 9 9
16 17 17 17 17 15 14 16 15 15 16 17 16 16 15 14 14 15 15 14 12 11 11 12 13 13 14 14 13 11 13 15 16 13 13 13 11 10 11 11 12 13 12 13 12 13 10 14 16 12 11 9 9 11 15 15 14 11 12 13 7 7 1 3 3 3 2 4 5 5 7 8 10 9 7 7 8 9 9 9 9 9 9 9 8
16 16 17 17 14 14 16 16 16 16 15 16 15 18 19 17 14 14 15 14 14 12 11 10 11 13 14 15 14 13 13 15 15 13 13 14 14 14 11 11 13 13 13 12 15 12 11 13 15 15 15 12 8 11 15 15 12 18 11 10 9 9 6 6 5 1 2 3 5 6 5 8 9 8 6 8 10 9 9 9 10 10 10 9 8
16 17 17 17 14 18 19 19 17 17 16 16 17 18 17 17 15 15 14 14 13 12 11 9 9 10 12 12 14 14 15 14 15 14 13 14 14 12 12 12 12 13 13 13 16 16 16 14 14 14 15 17 14 11 13 12 14 18 17 10 6 8 12 8 8 2 2 2 1 3 4 7 7 8 9 9 9 10 11 11 10 10 10 9 8
18 17 17 18 20 19 19 20 17 17 17 18 18 17 16 16 16 15 15 14 15 14 12 12 12 11 10 12 15 15 14 13 13 13 13 14 14 14 13 13 14 13 12 14 17 16 18 15 15 14 16 17 18 14 15 9 12 12 14 15 15 14 15 12 14 6 2 3 2 2 2 4 5 7 5 8 10 9 9 11 10 10 10 9 9
20 19 19 20 22 21 21 21 20 18 17 18 19 16 17 16 18 18 16 17 16 12 10 10 9 10 9 11 11 12 13 14 14 14 15 16 15 13 12 11 13 13 12 12 14 17 17 16 14 13 14 14 15 17 19 12 9 8 6 2 6 7 13 17 14 8 6 1 2 2 2 3 4 5 7 7 9 10 9 9 10 10 10 9 9
20 20 19 20 23 24 24 23 19 18 19 19 19 18 18 18 18 18 17 16 16 15 14 11 9 8 10 9 10 9 12 11 12 15 17 17 16 15 14 13 10 11 13 13 14 15 14 14 15 14 14 13 17 18 20 16 17 12 5 5 7 11 15 8 8 14 11 12 5 3 2 3 4 4 3 5 5 9 9 8 9 9 8 9 8
20 20 20 20 21 23 24 23 24 22 21 23 19 19 18 18 19 17 17 16 16 15 13 12 9 8 10 9 10 10 9 10 10 12 16 17 15 16 17 15 14 14 12 13 13 15 17 18 13 15 16 15 13 15 16 17 17 15 10 6 10 12 12 7 11 8 8 8 4 7 6 2 4 4 3 3 3 3 5 7 8 9 8 8 8
19 19 20 21 24 24 23 24 25 22 18 22 23 21 21 19 19 19 20 18 16 16 16 14 12 9 8 8 8 9 9 9 10 13 14 15 13 14 16 17 17 16 14 15 16 16 16 15 15 19 17 17 13 14 17 16 15 14 12 10 12 12 11 9 9 11 6 10 12 10 10 11 10 2 3 3 3 2 5 4 6 7 7 7 6
18 19 19 19 19 21 23 24 24 22 23 22 21 25 21 20 19 19 20 20 20 17 18 17 14 11 7 6 8 8 10 10 8 10 13 15 14 16 17 18 17 16 15 16 14 15 15 16 17 19 19 19 15 15 14 15 13 12 13 12 14 17 17 16 15 13 12 7 8 6 8 9 11 8 2 2 2 1 4 3 5 6 7 7 6
Wind_Direction
197 209 211 125 169 190 191 188 198 207 206 209 214 213 212 213 213 217 217 218 216 213 213 211 212 216 208 200 199 197 198 198 200 205 211 213 216 222 229 236 242 248 254 257 259 258 256 255 253 255 256 252 218 202 207 206 210 202 203 210 190 169 162 147 144 134 136 134 135 136 132 130 130 132 132 132 130 131 133 131 134 115 107 124 122
111 195 204 158 159 207 204 201 213 213 213 212 215 217 215 215 218 220 219 219 218 217 215 214 210 212 217 217 209 203 202 206 214 212 214 220 222 225 230 236 241 244 247 250 251 255 256 254 253 255 255 248 220 201 207 205 201 208 226 208 183 169 159 148 141 132 131 125 135 137 135 132 131 133 136 134 134 139 144 148 125 122 123 124 120
314 191 195 169 159 194 213 217 212 214 218 218 217 217 217 217 220 221 223 222 223 218 218 216 214 212 210 214 220 223 220 225 224 222 220 223 226 228 233 236 237 240 242 244 246 247 251 253 251 254 254 246 221 208 212 210 198 195 217 209 185 161 162 150 138 133 134 132 126 135 129 128 132 135 138 139 141 144 145 133 124 117 126 123 119
285 226 205 145 160 193 201 221 225 214 217 221 219 217 219 221 220 222 224 224 224 223 221 219 218 216 216 214 217 226 230 233 233 232 231 230 231 228 228 233 235 235 236 239 243 244 246 248 250 250 251 235 210 208 202 200 202 193 202 202 189 170 159 149 138 132 128 120 132 148 145 138 131 138 142 142 145 134 70 132 128 127 128 129 127
261 247 221 167 177 190 210 221 236 224 219 220 222 220 221 222 223 225 227 228 225 227 222 225 223 222 221 221 220 223 228 230 236 236 235 232 231 226 224 227 232 235 234 236 239 241 242 245 247 248 249 220 192 199 201 202 211 202 207 191 189 169 150 144 135 133 126 135 153 170 162 147 140 144 146 144 144 104 81 126 124 131 130 128 129
250 260 236 217 187 188 199 217 231 235 224 223 225 224 225 227 226 228 229 232 230 230 231 228 230 231 231 231 233 238 231 228 234 237 235 236 232 227 222 223 226 231 235 235 237 238 239 241 244 247 246 189 189 194 196 200 208 208 185 186 196 165 155 147 140 136 134 145 174 201 171 154 146 149 154 153 145 125 136 126 135 133 133 131 130
267 275 261 234 205 193 180 208 223 234 234 227 228 229 230 231 230 228 231 236 234 234 236 237 237 237 238 239 242 241 244 243 236 238 239 237 234 229 227 224 225 228 231 233 234 236 237 237 240 243 244 191 186 195 198 201 205 188 186 191 194 164 156 146 143 144 146 151 182 215 188 167 151 150 158 157 152 146 138 140 139 137 136 134 133
269 279 275 257 233 170 174 193 215 226 236 235 232 232 235 235 235 234 235 236 238 238 239 240 241 240 240 239 238 242 244 243 240 239 240 238 236 233 232 231 231 232 234 236 235 234 234 235 236 240 241 210 199 191 197 195 206 195 194 190 200 169 148 140 139 155 156 165 183 185 193 182 158 155 162 159 157 153 149 147 144 143 140 137 129
249 267 271 268 258 105 167 190 205 221 227 240 238 234 233 240 239 238 241 242 242 242 243 243 242 242 243 242 241 238 239 240 240 240 240 240 243 241 239 241 240 240 241 242 241 239 235 234 235 238 240 209 200 189 189 198 202 197 197 177 181 168 147 148 149 157 167 180 188 181 191 182 167 159 165 163 162 160 156 152 149 145 142 132 136
274 246 262 272 280 113 149 217 212 222 229 234 240 261 246 239 242 241 243 244 246 247 248 248 246 243 244 247 245 243 246 240 237 241 249 259 273 290 267 244 245 247 249 249 247 244 239 234 234 237 241 206 194 185 188 189 189 189 186 175 176 154 149 147 150 162 179 199 185 198 192 185 180 167 169 169 167 162 153 154 149 142 136 139 137
283 260 243 248 270 49 333 244 260 254 238 236 240 241 248 246 241 244 245 244 246 245 247 248 249 249 248 244 247 246 242 236 222 225 236 247 260 264 269 269 255 253 254 254 254 250 244 237 233 237 221 198 193 184 182 179 182 187 189 178 161 138 149 156 161 176 191 196 199 196 186 207 181 181 169 171 170 153 142 138 137 139 140 142 136
293 268 252 255 221 108 354 290 280 269 262 257 249 245 246 247 243 242 248 246 247 251 249 251 251 256 254 248 243 245 245 236 225 222 229 235 245 251 258 260 262 263 260 258 256 254 249 241 234 232 199 194 192 183 176 175 175 178 184 173 150 143 149 160 176 184 210 204 205 195 197 197 188 166 167 168 167 156 148 148 146 148 145 139 138
309 301 291 270 260 168 183 225 261 272 272 263 259 253 249 248 247 243 242 246 249 252 253 253 251 255 260 257 248 240 226 222 222 225 226 231 238 244 250 253 258 263 265 264 259 253 249 243 236 231 207 193 188 178 180 176 173 171 166 169 143 145 145 162 175 193 227 223 204 200 193 198 184 150 168 157 162 161 155 150 152 149 146 142 141
305 303 294 287 283 105 185 211 237 256 270 270 260 256 256 254 251 245 242 245 251 254 256 253 254 255 249 240 229 226 218 224 225 227 231 233 234 243 247 250 255 261 265 265 266 262 251 240 236 222 193 193 190 173 188 174 173 168 167 145 155 148 155 166 211 207 203 217 210 200 197 185 148 149 159 162 172 160 157 153 151 142 147 141 139
316 317 314 306 296 283 187 224 232 240 254 263 263 263 258 258 258 251 247 247 248 251 252 259 254 243 241 234 218 220 219 228 233 233 235 236 238 243 246 249 254 262 268 269 268 266 258 243 234 206 195 193 187 183 178 170 173 175 167 161 157 149 157 175 176 220 212 212 203 206 195 178 143 155 161 164 171 161 157 151 147 144 150 139 133
319 310 306 298 293 290 283 215 227 239 244 251 260 260 265 262 258 258 250 250 250 250 253 261 260 245 232 219 214 215 218 227 234 238 244 239 239 245 246 247 251 263 272 272 267 266 259 245 229 199 189 186 186 175 166 176 185 167 156 149 147 154 162 157 174 164 210 206 204 195 170 152 150 158 162 164 176 162 154 145 147 142 140 132 137
302 297 296 288 282 276 271 274 243 220 238 243 246 249 254 257 257 257 254 250 250 249 253 258 258 257 236 219 215 213 216 225 234 240 243 242 238 241 247 247 251 260 269 271 264 260 253 242 209 193 191 188 190 176 176 180 173 158 148 145 147 153 162 158 143 196 162 233 330 164 168 141 160 162 164 162 163 172 147 148 146 138 135 131 123
281 288 291 292 289 279 272 269 271 235 237 229 235 242 244 245 247 250 246 247 247 245 248 254 254 252 245 225 220 216 217 219 229 236 239 240 241 242 243 248 254 260 265 267 262 253 254 243 183 186 189 195 193 179 182 171 169 157 152 151 152 159 175 181 150 238 175 128 151 184 135 158 162 163 163 162 159 162 148 141 138 131 134 133 134
262 270 276 281 293 292 288 276 266 263 263 258 247 226 226 234 237 239 241 242 242 242 239 246 243 235 239 229 219 217 218 221 223 233 244 248 247 246 251 251 252 258 265 263 259 251 239 232 188 186 191 191 191 186 184 170 159 162 159 163 159 161 177 196 177 178 174 168 159 156 137 137 165 165 160 156 158 164 144 139 139 136 141 139 135
358 318 312 315 306 303 294 290 280 273 266 264 262 263 220 222 230 237 243 245 244 242 237 241 238 227 227 225 220 219 220 225 223 233 238 243 245 243 244 245 249 254 258 260 254 247 233 222 201 189 193 184 181 174 170 168 161 148 157 159 158 172 185 200 178 156 177 168 168 130 134 148 153 172 160 157 159 159 144 140 137 133 138 135 134
357 358 350 348 341 323 313 303 294 285 277 271 266 263 268 218 224 230 238 245 249 242 242 240 234 223 218 217 220 220 229 227 216 225 221 224 230 230 239 248 246 244 250 255 246 243 227 205 204 194 190 185 182 174 172 167 155 155 154 152 159 172 190 183 162 158 167 138 146 132 146 150 167 170 160 162 164 151 142 138 137 140 139 142 141
5 357 356 350 344 338 327 316 310 299 289 278 272 261 258 256 252 245 228 232 235 238 237 240 230 234 209 219 219 225 229 237 241 218 219 220 216 218 220 230 235 239 246 247 236 234 214 194 193 185 183 182 180 169 163 156 152 147 149 158 165 185 181 171 153 170 147 145 140 145 147 156 171 164 166 164 151 145 141 140 142 144 143 136 130
4 356 356 353 350 341 337 328 318 313 303 289 274 276 271 261 259 253 256 238 234 226 232 228 237 234 231 219 221 227 231 234 240 240 231 218 220 183 206 214 225 242 252 250 239 231 220 205 200 187 179 163 150 160 146 147 141 139 150 158 168 178 183 163 163 153 146 139 128 143 145 150 164 165 163 164 148 142 134 138 141 141 138 133 132
8 4 359 359 356 349 344 334 328 320 310 298 294 283 276 272 261 259 255 254 245 237 228 229 230 236 239 231 227 231 232 235 124 138 137 171 142 171 200 210 217 252 260 250 235 237 226 213 207 183 171 156 163 144 154 150 146 149 162 169 166 170 171 166 150 144 145 132 137 153 153 151 160 160 163 153 148 139 136 133 146 144 134 131 131
7 2 3 5 0 356 349 341 331 319 314 307 295 288 287 280 273 263 259 262 257 243 238 233 227 230 234 227 222 217 234 234 201 192 197 203 196 197 194 208 223 233 182 243 233 223 218 220 203 155 154 155 150 151 145 144 141 148 178 153 144 153 164 143 130 129 133 131 142 152 153 149 149 165 156 152 152 145 142 142 146 140 135 132 131
2 5 2 1 360 355 350 347 338 331 317 308 303 300 296 284 276 272 265 259 263 258 247 242 235 227 227 232 229 218 225 215 218 212 213 220 206 206 203 212 223 230 187 238 211 172 143 92 23 166 150 151 151 150 154 149 144 150 144 133 130 143 133 115 115 120 133 128 142 148 157 155 155 163 158 156 164 149 149 143 146 150 136 136 143
2 2 358 358 354 356 354 349 351 340 328 314 303 298 292 287 282 274 271 266 257 260 255 248 242 234 226 225 228 226 221 210 216 206 213 219 210 208 201 209 214 223 217 187 152 162 145 89 90 2 158 137 134 130 128 130 142 139 137 143 151 147 132 117 108 119 129 126 128 131 138 152 154 158 163 166 154 148 145 147 148 146 145 144 137
2 1 358 357 353 353 353 352 350 348 342 330 317 305 295 293 287 283 273 271 270 261 257 254 250 240 231 220 224 229 222 215 216 211 205 214 209 203 205 196 206 219 213 97 158 145 142 138 97 83 35 129 129 118 102 111 129 137 138 136 135 123 112 107 101 109 115 127 130 126 121 139 152 153 159 161 152 149 147 144 141 142 142 140 142
2 0 359 358 352 349 350 352 351 350 344 337 323 314 304 291 290 286 279 276 269 265 259 255 254 249 240 238 242 226 226 225 220 213 208 215 207 196 198 203 205 211 214 143 180 148 147 137 140 146 118 61 93 114 117 102 91 130 134 128 123 127 105 104 112 113 116 125 127 132 137 133 140 157 166 167 156 153 150 149 142 145 145 142 138
359 356 357 357 354 349 350 351 348 349 343 335 336 325 314 302 294 288 287 282 271 265 263 258 253 254 250 233 237 241 231 225 221 211 211 206 196 193 202 205 207 197 211 153 184 158 155 152 145 147 135 122 88 103 115 116 118 111 104 116 125 130 115 117 126 122 122 127 124 135 138 137 130 150 159 170 160 160 154 153 149 147 147 148 147
356 358 357 354 351 350 351 348 347 348 341 340 334 327 322 310 297 289 285 281 278 271 266 259 253 248 256 246 234 223 226 227 223 207 212 200 192 189 202 202 191 161 203 169 185 160 164 163 163 158 160 145 141 147 129 129 136 135 122 119 114 107 113 120 112 121 117 126 132 138 142 141 130 103 145 171 175 165 159 157 153 150 147 147 148
354 354 354 350 349 350 352 348 346 345 342 340 336 331 326 320 311 298 286 281 283 278 271 265 256 251 244 255 258 249 226 228 227 209 208 197 196 203 196 199 188 169 198 173 152 168 165 164 160 163 153 147 148 151 147 138 142 140 145 137 126 127 126 125 133 136 127 133 137 141 145 140 137 141 155 184 183 173 166 157 152 151 152 150 149
352 350 349 349 349 349 350 345 348 343 344 339 339 331 327 322 318 309 298 292 285 278 272 268 264 259 247 236 230 251 258 233 232 217 200 198 194 200 189 191 172 166 188 175 159 168 156 154 150 165 148 138 139 131 140 147 151 154 143 139 146 150 142 138 139 133 128 136 138 137 135 136 140 142 167 258 186 163 153 153 153 155 152 150 148
350 351 349 350 348 345 348 342 346 344 342 338 338 332 330 323 315 309 305 296 282 275 272 271 267 262 256 247 236 247 248 253 260 222 207 205 193 203 193 180 169 170 181 159 155 162 156 145 162 161 160 149 150 142 142 150 152 149 145 153 160 154 146 142 146 133 132 144 145 146 139 134 143 144 171 215 209 149 144 151 155 153 150 149 149
353 353 353 350 348 346 346 341 343 342 340 341 336 334 330 327 321 316 310 306 298 287 280 273 268 264 255 241 242 237 235 241 240 242 208 209 196 199 190 182 178 178 170 167 164 170 160 160 153 156 155 152 151 155 153 154 152 154 153 158 161 150 141 138 133 126 138 142 141 149 140 136 134 130 138 225 186 137 144 149 152 152 152 149 148
355 351 350 350 348 348 345 341 340 338 339 338 335 332 331 328 326 318 312 311 305 297 286 276 267 266 262 249 230 227 235 240 240 238 221 205 196 189 189 177 174 173 180 157 157 155 160 158 164 162 158 155 153 158 157 151 154 156 158 161 157 149 140 128 130 135 119 119 144 144 139 135 138 143 147 184 183 140 142 146 149 152 148 145 145
351 350 350 348 346 347 344 343 341 336 335 335 333 332 329 327 324 323 323 319 311 309 300 278 268 262 258 257 238 223 218 234 247 243 244 219 201 194 190 176 174 170 173 164 160 165 168 159 166 164 168 154 157 156 156 155 156 158 160 159 156 150 148 136 136 143 128 134 139 142 138 141 144 142 155 164 157 145 152 155 153 148 142 143 144
348 348 347 347 343 342 341 340 339 337 333 331 331 330 329 324 321 322 323 321 317 310 307 302 287 274 266 259 248 237 229 231 233 234 246 235 212 194 183 179 171 165 174 172 167 162 164 171 162 167 172 155 157 161 161 161 158 159 160 157 152 151 150 147 133 135 141 145 152 154 145 141 145 150 153 152 147 147 149 150 142 140 140 146 148
347 346 343 344 341 339 338 337 337 336 334 329 327 328 326 322 320 319 319 318 318 313 310 305 295 281 273 263 255 241 234 227 233 230 233 249 233 193 183 169 163 166 177 174 170 164 166 172 163 158 164 170 167 165 160 159 159 158 158 155 151 138 133 132 133 144 154 160 160 148 149 149 148 152 152 150 145 146 145 143 139 138 140 141 148
340 340 339 342 341 338 336 333 335 333 330 327 326 327 327 326 325 323 315 315 316 316 311 301 298 298 285 271 260 254 237 222 229 220 215 226 228 216 185 164 172 180 179 181 166 164 170 169 168 160 160 162 166 161 153 149 147 140 129 99 80 115 123 118 130 145 151 159 151 139 161 153 153 156 162 155 147 146 145 146 143 144 143 146 149
338 337 332 336 338 337 333 332 331 330 328 325 322 324 326 324 321 320 316 312 312 313 308 305 305 303 299 292 277 257 245 237 229 219 213 230 218 211 197 172 174 184 183 186 167 172 170 173 168 164 160 159 161 160 157 141 133 111 103 96 77 53 96 111 126 133 156 153 149 152 162 158 154 154 163 157 151 149 148 147 147 146 145 139 146
339 334 332 332 330 328 327 326 324 323 322 320 316 311 315 317 316 315 314 308 310 310 313 311 308 301 295 292 284 270 256 248 238 222 214 222 224 219 213 187 178 181 189 181 174 174 172 166 158 157 167 163 159 161 156 145 148 149 142 120 81 53 36 87 108 141 145 143 149 157 159 171 153 155 157 160 152 150 149 147 146 147 144 143 151
330 328 328 327 325 323 322 321 318 314 312 312 312 310 307 307 310 307 306 307 300 299 300 305 305 305 305 301 293 283 267 252 240 225 216 216 210 209 219 198 182 183 183 183 176 168 156 154 162 156 158 162 153 162 163 176 151 152 139 130 160 138 52 74 74 71 139 144 147 157 164 169 157 152 156 156 149 147 146 147 148 147 144 144 145
329 325 327 323 320 317 318 315 313 310 303 302 303 304 304 298 296 299 301 302 302 296 293 299 312 319 318 314 307 304 286 265 252 225 211 212 211 206 207 200 186 189 185 174 176 170 157 157 165 162 157 150 166 173 178 180 157 148 159 176 154 147 132 235 145 66 3 119 150 159 167 156 153 150 155 163 152 149 149 148 148 146 142 142 139
325 326 326 324 319 314 313 312 310 306 302 299 299 302 301 300 300 298 300 303 302 299 303 310 320 316 314 312 313 311 304 293 267 237 213 217 212 208 200 201 191 190 187 180 182 175 171 165 162 160 168 165 164 166 186 189 181 171 145 131 134 177 189 150 119 59 33 90 49 131 148 141 142 153 164 164 153 152 151 151 148 145 142 140 133
327 326 323 319 318 315 312 308 305 303 300 300 300 298 298 299 300 300 301 307 307 311 314 319 322 318 313 308 306 308 305 295 286 269 225 212 218 209 207 191 191 186 196 185 183 176 174 172 172 166 171 173 163 166 175 199 193 192 178 167 169 169 160 155 153 172 358 18 23 37 119 121 139 146 157 157 149 150 154 152 150 147 144 140 136
326 325 322 319 316 313 310 308 306 302 299 297 298 296 296 297 295 294 295 296 296 294 298 294 295 299 300 303 304 310 309 304 297 279 243 222 213 204 197 200 194 186 182 182 183 180 179 175 171 170 174 168 163 166 175 177 179 224 192 56 85 96 135 149 173 105 136 198 101 147 140 104 113 131 147 159 148 150 155 152 150 146 142 140 140
323 321 318 317 316 314 310 306 303 300 298 297 295 295 295 294 294 293 291 288 288 290 297 289 281 286 293 298 306 301 303 307 307 297 266 227 209 205 196 193 196 189 183 185 176 184 181 177 176 172 166 173 176 174 174 168 174 192 178 112 98 120 141 133 135 158 157 153 166 8 34 90 103 82 103 119 133 150 148 147 147 144 139 139 140
323 320 317 314 312 309 306 305 303 301 300 294 287 291 290 290 290 291 288 285 285 285 290 289 278 282 293 303 303 301 296 301 307 308 292 250 217 204 200 195 189 193 193 188 185 179 179 178 170 174 180 181 183 177 172 176 178 172 160 148 130 137 144 127 133 130 140 144 147 168 152 67 87 80 68 61 36 89 128 145 144 142 139 139 142
317 312 313 317 316 309 302 302 303 302 300 302 298 292 290 290 288 287 286 286 285 285 286 288 285 284 289 298 301 305 307 305 316 315 311 283 237 210 200 197 191 190 192 192 186 182 178 174 168 178 180 176 185 181 179 180 182 169 161 152 142 142 136 134 153 148 133 157 161 175 164 160 157 132 57 94 93 51 92 108 134 139 141 139 139
311 311 307 301 301 306 307 304 303 305 303 302 302 298 293 287 286 285 286 285 282 279 283 283 288 286 286 297 303 307 307 307 312 315 309 304 255 221 212 204 195 190 190 190 188 184 179 179 173 175 179 180 180 186 180 175 176 171 170 169 163 164 166 167 165 159 151 145 127 147 162 175 157 144 146 66 83 78 91 111 132 140 147 145 145